Time,TemperatureF,DewpointF,PressureIn,WindDirection,WindDirectionDegrees,WindSpeedMPH,WindSpeedGustMPH,Humidity,HourlyPrecipIn,Conditions,Clouds,dailyrainin,SoftwareType,DateUTC
2013-06-08 00:02:00,58.4,51.6,29.72,ENE,72,0.0,0.0,78,0.00,,CLR,0.00,VWS V14.01,2013-06-08 04:02:00,
2013-06-08 00:07:00,57.8,51.3,29.72,ENE,72,0.0,0.0,79,0.00,,CLR,0.00,VWS V14.01,2013-06-08 04:07:00,
2013-06-08 00:13:00,57.5,51.0,29.72,ENE,72,0.0,0.0,79,0.00,,CLR,0.00,VWS V14.01,2013-06-08 04:13:00,
2013-06-08 00:17:00,57.3,51.2,29.72,ENE,72,0.0,0.0,80,0.00,,CLR,0.00,VWS V14.01,2013-06-08 04:17:00,
2013-06-08 00:22:00,57.3,50.8,29.72,ENE,72,0.0,0.0,79,0.00,,CLR,0.00,VWS V14.01,2013-06-08 04:22:00,
2013-06-08 00:32:00,57.2,50.8,29.73,ENE,72,0.0,0.0,79,0.00,,CLR,0.00,VWS V14.01,2013-06-08 04:32:00,
2013-06-08 00:42:00,57.5,51.0,29.73,ENE,72,0.0,0.0,79,0.00,,CLR,0.00,VWS V14.01,2013-06-08 04:42:00,
2013-06-08 00:52:00,57.5,51.0,29.72,ENE,72,0.0,0.0,79,0.00,,CLR,0.00,VWS V14.01,2013-06-08 04:52:00,
2013-06-08 00:57:00,57.5,51.4,29.72,ENE,72,0.0,0.0,80,0.00,,CLR,0.00,VWS V14.01,2013-06-08 04:57:00,
2013-06-08 01:02:00,57.5,51.4,29.72,ENE,72,0.0,0.0,80,0.00,,CLR,0.00,VWS V14.01,2013-06-08 05:02:00,
2013-06-08 01:12:00,57.3,51.5,29.72,ENE,72,0.0,0.0,81,0.00,,CLR,0.00,VWS V14.01,2013-06-08 05:12:00,
2013-06-08 01:17:00,57.3,51.2,29.73,ENE,72,0.0,0.0,80,0.00,,CLR,0.00,VWS V14.01,2013-06-08 05:17:00,
2013-06-08 01:22:00,57.2,51.4,29.73,ENE,72,0.0,0.0,81,0.00,,CLR,0.00,VWS V14.01,2013-06-08 05:22:00,
2013-06-08 01:32:00,57.0,51.2,29.72,ENE,72,0.0,0.0,81,0.00,,CLR,0.00,VWS V14.01,2013-06-08 05:32:00,
2013-06-08 01:37:00,57.0,51.2,29.72,ENE,72,0.0,0.0,81,0.00,,CLR,0.00,VWS V14.01,2013-06-08 05:37:00,
2013-06-08 01:42:00,57.0,51.2,29.72,ENE,72,0.0,0.0,81,0.00,,CLR,0.00,VWS V14.01,2013-06-08 05:42:00,
2013-06-08 01:47:00,57.0,51.2,29.72,ENE,72,0.0,0.0,81,0.00,,CLR,0.00,VWS V14.01,2013-06-08 05:47:00,
2013-06-08 01:57:00,57.2,51.4,29.72,ENE,72,0.0,0.0,81,0.00,,CLR,0.00,VWS V14.01,2013-06-08 05:57:00,
2013-06-08 02:02:00,57.2,51.8,29.72,ENE,72,0.0,0.0,82,0.00,,CLR,0.00,VWS V14.01,2013-06-08 06:02:00,
2013-06-08 02:12:00,57.3,51.9,29.72,ENE,72,0.0,0.0,82,0.00,,CLR,0.00,VWS V14.01,2013-06-08 06:12:00,
2013-06-08 02:17:00,57.5,52.1,29.72,ENE,72,0.0,0.0,82,0.00,,CLR,0.00,VWS V14.01,2013-06-08 06:17:00,
2013-06-08 02:22:00,57.5,52.1,29.72,ENE,72,0.0,0.0,82,0.00,,CLR,0.00,VWS V14.01,2013-06-08 06:22:00,
2013-06-08 02:32:00,57.5,52.1,29.72,ENE,72,0.0,0.0,82,0.00,,CLR,0.00,VWS V14.01,2013-06-08 06:32:00,
2013-06-08 02:37:00,57.5,52.1,29.72,ENE,72,0.0,0.0,82,0.00,,CLR,0.00,VWS V14.01,2013-06-08 06:37:00,
2013-06-08 02:42:00,57.3,51.9,29.72,ENE,72,0.0,0.0,82,0.00,,CLR,0.00,VWS V14.01,2013-06-08 06:42:00,
2013-06-08 02:47:00,57.3,52.2,29.72,ENE,72,0.0,0.0,83,0.00,,CLR,0.00,VWS V14.01,2013-06-08 06:47:00,
2013-06-08 02:57:00,57.3,52.2,29.72,ENE,72,0.0,0.0,83,0.00,,CLR,0.00,VWS V14.01,2013-06-08 06:57:00,
2013-06-08 03:02:00,57.3,52.5,29.73,ENE,72,0.0,0.0,84,0.00,,CLR,0.00,VWS V14.01,2013-06-08 07:02:00,
2013-06-08 03:12:00,57.2,52.4,29.73,ENE,72,0.0,0.0,84,0.00,,CLR,0.00,VWS V14.01,2013-06-08 07:12:00,
2013-06-08 03:17:00,57.2,52.4,29.73,ENE,72,0.0,0.0,84,0.00,,CLR,0.00,VWS V14.01,2013-06-08 07:17:00,
2013-06-08 03:22:00,57.2,52.4,29.73,ENE,72,0.0,0.0,84,0.00,,CLR,0.00,VWS V14.01,2013-06-08 07:22:00,
2013-06-08 03:27:00,57.2,52.1,29.73,ENE,72,0.0,0.0,83,0.00,,CLR,0.00,VWS V14.01,2013-06-08 07:27:00,
2013-06-08 03:32:00,57.2,52.1,29.73,ENE,72,0.0,0.0,83,0.00,,CLR,0.00,VWS V14.01,2013-06-08 07:32:00,
2013-06-08 03:42:00,57.3,52.2,29.73,ENE,72,0.0,0.0,83,0.00,,CLR,0.00,VWS V14.01,2013-06-08 07:42:00,
2013-06-08 03:47:00,57.6,52.2,29.73,ENE,72,0.0,0.0,82,0.00,,CLR,0.00,VWS V14.01,2013-06-08 07:47:00,
2013-06-08 03:57:00,58.0,52.2,29.73,ENE,72,0.0,0.0,81,0.00,,CLR,0.00,VWS V14.01,2013-06-08 07:57:00,
2013-06-08 04:02:00,58.1,52.3,29.73,East,82,0.0,0.0,81,0.00,,CLR,0.00,VWS V14.01,2013-06-08 08:02:00,
2013-06-08 04:12:00,58.1,52.0,29.73,East,82,0.0,0.0,80,0.00,,CLR,0.00,VWS V14.01,2013-06-08 08:12:00,
2013-06-08 04:17:00,58.1,51.6,29.73,East,82,0.0,0.0,79,0.00,,CLR,0.00,VWS V14.01,2013-06-08 08:17:00,
2013-06-08 04:22:00,57.8,51.3,29.73,East,82,0.0,0.0,79,0.00,,CLR,0.00,VWS V14.01,2013-06-08 08:22:00,
2013-06-08 04:32:00,57.6,51.1,29.73,East,82,0.0,0.0,79,0.00,,CLR,0.00,VWS V14.01,2013-06-08 08:32:00,
2013-06-08 04:37:00,57.5,51.4,29.73,East,82,0.0,0.0,80,0.00,,CLR,0.00,VWS V14.01,2013-06-08 08:37:00,
2013-06-08 04:42:00,57.2,51.1,29.73,East,82,0.0,0.0,80,0.00,,FEW049,0.00,VWS V14.01,2013-06-08 08:42:00,
2013-06-08 04:47:00,57.0,50.9,29.73,East,82,0.0,0.0,80,0.00,,FEW049,0.00,VWS V14.01,2013-06-08 08:47:00,
2013-06-08 04:52:00,56.7,50.6,29.73,East,82,0.0,0.0,80,0.00,,FEW049,0.00,VWS V14.01,2013-06-08 08:52:00,
2013-06-08 04:57:00,56.7,50.9,29.73,East,82,0.0,0.0,81,0.00,,FEW049,0.00,VWS V14.01,2013-06-08 08:57:00,
2013-06-08 05:02:00,56.5,50.8,29.74,East,82,0.0,0.0,81,0.00,,FEW049,0.00,VWS V14.01,2013-06-08 09:02:00,
2013-06-08 05:12:00,56.3,50.9,29.74,East,82,0.0,0.0,82,0.00,,FEW049,0.00,VWS V14.01,2013-06-08 09:12:00,
2013-06-08 05:17:00,56.2,50.8,29.74,East,82,0.0,0.0,82,0.00,,FEW049,0.00,VWS V14.01,2013-06-08 09:17:00,
2013-06-08 05:27:00,55.9,50.8,29.74,East,82,0.0,0.0,83,0.00,,FEW049,0.00,VWS V14.01,2013-06-08 09:27:00,
2013-06-08 05:32:00,55.9,50.8,29.74,East,82,0.0,0.0,83,0.00,,FEW049,0.00,VWS V14.01,2013-06-08 09:32:00,
2013-06-08 05:37:00,55.7,50.6,29.74,East,82,0.0,0.0,83,0.00,,FEW049,0.00,VWS V14.01,2013-06-08 09:37:00,
2013-06-08 05:42:00,55.3,50.6,29.74,East,82,0.0,0.0,84,0.00,,FEW049,0.00,VWS V14.01,2013-06-08 09:42:00,
2013-06-08 05:47:00,55.1,50.4,29.74,East,82,0.0,0.0,84,0.00,,FEW049,0.00,VWS V14.01,2013-06-08 09:47:00,
2013-06-08 05:57:00,54.8,50.4,29.74,East,82,0.0,0.0,85,0.00,,FEW049,0.00,VWS V14.01,2013-06-08 09:57:00,
2013-06-08 06:02:00,54.7,50.3,29.74,East,82,0.0,0.0,85,0.00,,FEW049,0.00,VWS V14.01,2013-06-08 10:02:00,
2013-06-08 06:07:00,54.5,50.4,29.74,East,82,0.0,0.0,86,0.00,,FEW049,0.00,VWS V14.01,2013-06-08 10:07:00,
2013-06-08 06:12:00,54.4,50.3,29.74,East,82,0.0,0.0,86,0.00,,FEW049,0.00,VWS V14.01,2013-06-08 10:12:00,
2013-06-08 06:22:00,54.5,50.4,29.75,East,82,0.0,0.0,86,0.00,,FEW049,0.00,VWS V14.01,2013-06-08 10:22:00,
2013-06-08 06:27:00,54.4,50.3,29.75,East,82,0.0,0.0,86,0.00,,FEW049,0.00,VWS V14.01,2013-06-08 10:27:00,
2013-06-08 06:37:00,54.4,50.3,29.74,East,82,0.0,0.0,86,0.00,,FEW049,0.00,VWS V14.01,2013-06-08 10:37:00,
2013-06-08 06:42:00,54.7,50.9,29.74,East,82,0.0,0.0,87,0.00,,SCT055,0.00,VWS V14.01,2013-06-08 10:42:00,
2013-06-08 06:47:00,54.8,51.0,29.75,East,82,0.0,0.0,87,0.00,,SCT055,0.00,VWS V14.01,2013-06-08 10:47:00,
2013-06-08 06:52:00,55.0,51.2,29.75,East,82,0.0,0.0,87,0.00,,SCT055,0.00,VWS V14.01,2013-06-08 10:52:00,
2013-06-08 06:57:00,55.1,51.3,29.75,East,82,0.0,0.0,87,0.00,,SCT055,0.00,VWS V14.01,2013-06-08 10:57:00,
2013-06-08 07:02:00,55.6,51.8,29.75,East,82,0.0,0.0,87,0.00,,SCT055,0.00,VWS V14.01,2013-06-08 11:02:00,
2013-06-08 07:12:00,56.5,52.4,29.75,East,82,0.0,0.0,86,0.00,,SCT055,0.00,VWS V14.01,2013-06-08 11:12:00,
2013-06-08 07:17:00,56.7,52.6,29.76,East,82,0.0,0.0,86,0.00,,SCT055,0.00,VWS V14.01,2013-06-08 11:17:00,
2013-06-08 07:22:00,57.0,52.5,29.76,East,97,0.0,0.0,85,0.00,,SCT055,0.00,VWS V14.01,2013-06-08 11:22:00,
2013-06-08 07:32:00,57.6,52.8,29.76,ESE,102,0.0,0.0,84,0.00,,SCT055,0.00,VWS V14.01,2013-06-08 11:32:00,
2013-06-08 07:37:00,58.0,52.9,29.76,SE,126,0.0,0.0,83,0.00,,SCT055,0.00,VWS V14.01,2013-06-08 11:37:00,
2013-06-08 07:47:00,59.2,53.0,29.76,SE,127,0.0,0.0,80,0.00,,BKN060,0.00,VWS V14.01,2013-06-08 11:47:00,
2013-06-08 07:52:00,59.5,52.3,29.76,SE,134,0.0,0.0,77,0.00,,BKN060,0.00,VWS V14.01,2013-06-08 11:52:00,
2013-06-08 07:57:00,59.5,51.6,29.76,SE,128,0.0,0.0,75,0.00,,BKN060,0.00,VWS V14.01,2013-06-08 11:57:00,
2013-06-08 08:02:00,59.3,51.0,29.77,SE,130,0.0,0.0,74,0.00,,BKN060,0.00,VWS V14.01,2013-06-08 12:02:00,
2013-06-08 08:12:00,59.9,52.0,29.77,SE,134,0.0,0.0,75,0.00,,BKN060,0.00,VWS V14.01,2013-06-08 12:12:00,
2013-06-08 08:17:00,61.2,52.9,29.78,SE,134,0.0,0.0,74,0.00,,BKN060,0.00,VWS V14.01,2013-06-08 12:17:00,
2013-06-08 08:27:00,62.0,51.3,29.78,SE,136,0.0,0.0,68,0.00,,BKN060,0.00,VWS V14.01,2013-06-08 12:27:00,
2013-06-08 08:32:00,62.6,51.1,29.78,ESE,120,0.0,0.0,66,0.00,,BKN060,0.00,VWS V14.01,2013-06-08 12:32:00,
2013-06-08 08:37:00,63.2,50.8,29.78,SE,133,0.0,0.0,64,0.00,,BKN060,0.00,VWS V14.01,2013-06-08 12:37:00,
2013-06-08 08:42:00,63.7,51.3,29.78,SE,130,0.0,0.0,64,0.00,,BKN060,0.00,VWS V14.01,2013-06-08 12:42:00,
2013-06-08 08:52:00,63.7,50.5,29.78,SE,128,0.0,0.0,62,0.00,,BKN060,0.00,VWS V14.01,2013-06-08 12:52:00,
2013-06-08 09:02:00,65.6,51.8,29.78,SE,127,0.0,0.0,61,0.00,,BKN060,0.00,VWS V14.01,2013-06-08 13:02:00,
2013-06-08 09:12:00,66.0,50.3,29.78,ESE,116,0.0,0.0,57,0.00,,BKN060,0.00,VWS V14.01,2013-06-08 13:12:00,
2013-06-08 09:17:00,66.1,50.9,29.79,ESE,116,0.0,0.0,58,0.00,,BKN060,0.00,VWS V14.01,2013-06-08 13:17:00,
2013-06-08 09:22:00,66.9,51.2,29.79,ESE,119,0.0,0.0,57,0.00,,BKN060,0.00,VWS V14.01,2013-06-08 13:22:00,
2013-06-08 09:32:00,66.6,50.9,29.79,SE,130,0.0,0.0,57,0.00,,BKN060,0.00,VWS V14.01,2013-06-08 13:32:00,
2013-06-08 09:37:00,66.8,51.1,29.79,SE,126,0.0,0.0,57,0.00,,BKN060,0.00,VWS V14.01,2013-06-08 13:37:00,
2013-06-08 09:47:00,67.3,51.1,29.80,ESE,123,0.0,0.0,56,0.00,,SCT065,0.00,VWS V14.01,2013-06-08 13:47:00,
2013-06-08 09:52:00,67.8,50.6,29.80,SE,143,0.0,0.0,54,0.00,,SCT065,0.00,VWS V14.01,2013-06-08 13:52:00,
2013-06-08 09:57:00,67.6,50.4,29.80,ESE,121,0.0,0.0,54,0.00,,SCT065,0.00,VWS V14.01,2013-06-08 13:57:00,
2013-06-08 10:02:00,68.6,50.8,29.80,ESE,121,0.0,0.0,53,0.00,,SCT065,0.00,VWS V14.01,2013-06-08 14:02:00,
2013-06-08 10:07:00,68.9,50.0,29.80,ESE,119,0.0,0.0,51,0.00,,SCT065,0.00,VWS V14.01,2013-06-08 14:07:00,
2013-06-08 10:12:00,69.3,49.9,29.80,ESE,109,0.0,0.0,50,0.00,,SCT065,0.00,VWS V14.01,2013-06-08 14:12:00,
2013-06-08 10:17:00,69.1,50.2,29.80,SE,131,0.0,0.0,51,0.00,,SCT065,0.00,VWS V14.01,2013-06-08 14:17:00,
2013-06-08 10:22:00,69.6,51.2,29.80,SE,131,0.0,0.0,52,0.00,,SCT065,0.00,VWS V14.01,2013-06-08 14:22:00,
2013-06-08 10:27:00,69.8,50.9,29.80,SE,131,0.0,0.0,51,0.00,,SCT065,0.00,VWS V14.01,2013-06-08 14:27:00,
2013-06-08 10:32:00,69.8,50.9,29.79,SE,131,0.0,0.0,51,0.00,,SCT065,0.00,VWS V14.01,2013-06-08 14:32:00,
2013-06-08 10:37:00,70.6,51.1,29.79,SE,131,0.0,0.0,50,0.00,,SCT065,0.00,VWS V14.01,2013-06-08 14:37:00,
2013-06-08 10:42:00,69.8,50.9,29.79,SSE,150,0.0,0.0,51,0.00,,CLR,0.00,VWS V14.01,2013-06-08 14:42:00,
2013-06-08 10:52:00,71.5,51.9,29.79,SE,134,3.0,5.0,50,0.00,,CLR,0.00,VWS V14.01,2013-06-08 14:52:00,
2013-06-08 10:57:00,71.8,51.1,29.79,SE,134,0.0,3.0,48,0.00,,CLR,0.00,VWS V14.01,2013-06-08 14:57:00,
2013-06-08 11:02:00,71.5,51.4,29.79,SE,131,0.0,0.0,49,0.00,,CLR,0.00,VWS V14.01,2013-06-08 15:02:00,
2013-06-08 11:12:00,72.3,51.5,29.79,SE,128,0.0,0.0,48,0.00,,CLR,0.00,VWS V14.01,2013-06-08 15:12:00,
2013-06-08 11:17:00,72.5,51.2,29.80,SE,130,0.0,0.0,47,0.00,,CLR,0.00,VWS V14.01,2013-06-08 15:17:00,
2013-06-08 11:22:00,73.0,52.2,29.80,ESE,119,0.0,0.0,48,0.00,,CLR,0.00,VWS V14.01,2013-06-08 15:22:00,
2013-06-08 11:27:00,73.3,50.7,29.80,SSE,168,0.0,0.0,45,0.00,,CLR,0.00,VWS V14.01,2013-06-08 15:27:00,
2013-06-08 11:32:00,72.3,50.4,29.80,SSE,158,0.0,0.0,46,0.00,,CLR,0.00,VWS V14.01,2013-06-08 15:32:00,
2013-06-08 11:37:00,72.1,49.6,29.80,SSE,158,0.0,0.0,45,0.00,,CLR,0.00,VWS V14.01,2013-06-08 15:37:00,
2013-06-08 11:42:00,71.8,49.3,29.80,SSE,147,0.0,0.0,45,0.00,,CLR,0.00,VWS V14.01,2013-06-08 15:42:00,
2013-06-08 11:47:00,72.7,50.8,29.80,ESE,120,0.0,0.0,46,0.00,,CLR,0.00,VWS V14.01,2013-06-08 15:47:00,
2013-06-08 11:57:00,75.6,48.2,29.80,ESE,112,0.0,0.0,38,0.00,,CLR,0.00,VWS V14.01,2013-06-08 15:57:00,
2013-06-08 12:02:00,75.8,49.1,29.79,ESE,110,0.0,0.0,39,0.00,,CLR,0.00,VWS V14.01,2013-06-08 16:02:00,
2013-06-08 12:12:00,76.1,48.0,29.79,East,100,0.0,0.0,37,0.00,,CLR,0.00,VWS V14.01,2013-06-08 16:12:00,
2013-06-08 12:17:00,76.1,48.7,29.79,ESE,109,0.0,0.0,38,0.00,,CLR,0.00,VWS V14.01,2013-06-08 16:17:00,
2013-06-08 12:22:00,76.0,47.9,29.79,ESE,113,0.0,0.0,37,0.00,,CLR,0.00,VWS V14.01,2013-06-08 16:22:00,
2013-06-08 12:32:00,76.3,48.1,29.78,ESE,110,0.0,0.0,37,0.00,,CLR,0.00,VWS V14.01,2013-06-08 16:32:00,
2013-06-08 12:42:00,76.3,49.5,29.78,ESE,119,0.0,0.0,39,0.00,,SCT060,0.00,VWS V14.01,2013-06-08 16:42:00,
2013-06-08 12:47:00,76.0,49.3,29.78,ESE,123,0.0,0.0,39,0.00,,SCT060,0.00,VWS V14.01,2013-06-08 16:47:00,
2013-06-08 12:52:00,76.8,49.3,29.78,ESE,112,0.0,0.0,38,0.00,,SCT060,0.00,VWS V14.01,2013-06-08 16:52:00,
2013-06-08 12:57:00,76.8,49.3,29.78,ESE,117,0.0,0.0,38,0.00,,SCT060,0.00,VWS V14.01,2013-06-08 16:57:00,
2013-06-08 13:02:00,77.0,49.5,29.79,ESE,117,0.0,0.0,38,0.00,,SCT060,0.00,VWS V14.01,2013-06-08 17:02:00,
2013-06-08 13:12:00,76.0,49.3,29.79,East,95,0.0,0.0,39,0.00,,SCT060,0.00,VWS V14.01,2013-06-08 17:12:00,
2013-06-08 13:17:00,76.3,50.9,29.79,ESE,104,0.0,0.0,41,0.00,,SCT060,0.00,VWS V14.01,2013-06-08 17:17:00,
2013-06-08 13:22:00,76.5,50.4,29.79,SE,144,0.0,0.0,40,0.00,,SCT060,0.00,VWS V14.01,2013-06-08 17:22:00,
2013-06-08 13:27:00,76.3,50.9,29.79,SE,145,0.0,0.0,41,0.00,,SCT060,0.00,VWS V14.01,2013-06-08 17:27:00,
2013-06-08 13:32:00,76.7,51.2,29.78,SE,144,0.0,0.0,41,0.00,,SCT060,0.00,VWS V14.01,2013-06-08 17:32:00,
2013-06-08 13:37:00,77.9,51.7,29.78,SE,127,0.0,0.0,40,0.00,,SCT060,0.00,VWS V14.01,2013-06-08 17:37:00,
2013-06-08 13:42:00,77.0,50.2,29.78,SSW,205,0.0,0.0,39,0.00,,FEW047,0.00,VWS V14.01,2013-06-08 17:42:00,
2013-06-08 13:47:00,76.1,50.7,29.79,SE,133,0.0,0.0,41,0.00,,FEW047,0.00,VWS V14.01,2013-06-08 17:47:00,
2013-06-08 13:52:00,76.7,50.6,29.79,SE,144,0.0,0.0,40,0.00,,FEW047,0.00,VWS V14.01,2013-06-08 17:52:00,
2013-06-08 13:57:00,76.8,49.3,29.79,SSE,162,0.0,0.0,38,0.00,,FEW047,0.00,VWS V14.01,2013-06-08 17:57:00,
2013-06-08 14:02:00,76.8,50.0,29.78,ESE,121,0.0,0.0,39,0.00,,FEW047,0.00,VWS V14.01,2013-06-08 18:02:00,
2013-06-08 14:07:00,77.9,51.7,29.78,ESE,121,0.0,0.0,40,0.00,,FEW047,0.00,VWS V14.01,2013-06-08 18:07:00,
2013-06-08 14:17:00,77.2,49.7,29.78,SE,145,0.0,0.0,38,0.00,,FEW047,0.00,VWS V14.01,2013-06-08 18:17:00,
2013-06-08 14:22:00,77.9,49.6,29.78,South,188,0.0,0.0,37,0.00,,FEW047,0.00,VWS V14.01,2013-06-08 18:22:00,
2013-06-08 14:27:00,77.9,51.0,29.78,SSW,213,0.0,0.0,39,0.00,,FEW047,0.00,VWS V14.01,2013-06-08 18:27:00,
2013-06-08 14:37:00,79.4,50.2,29.78,SE,124,0.0,0.0,36,0.00,,FEW047,0.00,VWS V14.01,2013-06-08 18:37:00,
2013-06-08 14:42:00,79.4,50.2,29.78,ESE,120,0.0,0.0,36,0.00,,SCT060,0.00,VWS V14.01,2013-06-08 18:42:00,
2013-06-08 14:47:00,78.6,48.7,29.77,ESE,114,0.0,0.0,35,0.00,,SCT060,0.00,VWS V14.01,2013-06-08 18:47:00,
2013-06-08 14:52:00,79.4,50.2,29.77,South,175,0.0,0.0,36,0.00,,SCT060,0.00,VWS V14.01,2013-06-08 18:52:00,
2013-06-08 15:02:00,80.1,50.0,29.77,SSW,199,0.0,3.0,35,0.00,,SCT060,0.00,VWS V14.01,2013-06-08 19:02:00,
2013-06-08 15:07:00,78.3,46.0,29.77,SSW,202,0.0,0.0,32,0.00,,SCT060,0.00,VWS V14.01,2013-06-08 19:07:00,
2013-06-08 15:12:00,77.4,48.4,29.77,SSE,160,0.0,0.0,36,0.00,,SCT060,0.00,VWS V14.01,2013-06-08 19:12:00,
2013-06-08 15:17:00,77.9,47.3,29.77,South,169,0.0,0.0,34,0.00,,SCT060,0.00,VWS V14.01,2013-06-08 19:17:00,
2013-06-08 15:22:00,77.4,49.8,29.77,South,178,0.0,0.0,38,0.00,,SCT060,0.00,VWS V14.01,2013-06-08 19:22:00,
2013-06-08 15:27:00,77.7,47.9,29.77,SSW,208,0.0,0.0,35,0.00,,SCT060,0.00,VWS V14.01,2013-06-08 19:27:00,
2013-06-08 15:32:00,77.9,50.3,29.77,South,185,0.0,0.0,38,0.00,,SCT060,0.00,VWS V14.01,2013-06-08 19:32:00,
2013-06-08 15:37:00,78.5,48.6,29.77,SE,138,0.0,0.0,35,0.00,,SCT060,0.00,VWS V14.01,2013-06-08 19:37:00,
2013-06-08 15:42:00,79.6,48.8,29.77,SSE,147,0.0,0.0,34,0.00,,SCT070,0.00,VWS V14.01,2013-06-08 19:42:00,
2013-06-08 15:47:00,80.1,50.0,29.76,South,175,0.0,0.0,35,0.00,,SCT070,0.00,VWS V14.01,2013-06-08 19:47:00,
2013-06-08 15:52:00,79.8,49.0,29.76,SE,145,0.0,2.0,34,0.00,,SCT070,0.00,VWS V14.01,2013-06-08 19:52:00,
2013-06-08 15:57:00,79.4,48.6,29.76,ESE,119,0.0,0.0,34,0.00,,SCT070,0.00,VWS V14.01,2013-06-08 19:57:00,
2013-06-08 16:02:00,79.4,48.6,29.76,ESE,123,0.0,0.0,34,0.00,,SCT070,0.00,VWS V14.01,2013-06-08 20:02:00,
2013-06-08 16:12:00,79.6,47.2,29.76,SSE,154,0.0,0.0,32,0.00,,SCT070,0.00,VWS V14.01,2013-06-08 20:12:00,
2013-06-08 16:17:00,77.9,48.1,29.76,SSE,165,0.0,1.0,35,0.00,,SCT070,0.00,VWS V14.01,2013-06-08 20:17:00,
2013-06-08 16:27:00,76.1,48.0,29.76,South,184,0.0,14.0,37,0.00,,SCT070,0.00,VWS V14.01,2013-06-08 20:27:00,
2013-06-08 16:32:00,76.7,48.5,29.76,South,184,0.0,0.0,37,0.00,,SCT070,0.00,VWS V14.01,2013-06-08 20:32:00,
2013-06-08 16:37:00,77.7,49.4,29.76,SSE,151,0.0,0.0,37,0.00,,SCT070,0.00,VWS V14.01,2013-06-08 20:37:00,
2013-06-08 16:42:00,77.7,48.7,29.76,SSE,151,0.0,0.0,36,0.00,,BKN090,0.00,VWS V14.01,2013-06-08 20:42:00,
2013-06-08 16:47:00,78.1,48.2,29.76,SE,134,0.0,0.0,35,0.00,,BKN090,0.00,VWS V14.01,2013-06-08 20:47:00,
2013-06-08 16:57:00,77.6,50.0,29.76,SE,133,0.0,0.0,38,0.00,,BKN090,0.00,VWS V14.01,2013-06-08 20:57:00,
2013-06-08 17:02:00,77.4,48.4,29.76,SE,133,0.0,0.0,36,0.00,,BKN090,0.00,VWS V14.01,2013-06-08 21:02:00,
2013-06-08 17:17:00,77.4,49.8,29.76,SSE,160,0.0,0.0,38,0.00,,BKN090,0.00,VWS V14.01,2013-06-08 21:17:00,
2013-06-08 17:22:00,77.7,49.4,29.76,SSE,168,0.0,0.0,37,0.00,,BKN090,0.00,VWS V14.01,2013-06-08 21:22:00,
2013-06-08 17:32:00,78.1,49.7,29.77,South,174,0.0,0.0,37,0.00,,BKN090,0.00,VWS V14.01,2013-06-08 21:32:00,
2013-06-08 17:37:00,77.4,49.1,29.77,South,175,0.0,0.0,37,0.00,,BKN090,0.00,VWS V14.01,2013-06-08 21:37:00,
2013-06-08 17:42:00,77.0,48.8,29.77,South,175,0.0,0.0,37,0.00,,BKN095,0.00,VWS V14.01,2013-06-08 21:42:00,
2013-06-08 17:52:00,77.0,50.2,29.77,SSE,150,0.0,0.0,39,0.00,,BKN095,0.00,VWS V14.01,2013-06-08 21:52:00,
2013-06-08 17:57:00,78.1,49.7,29.77,SSE,150,0.0,0.0,37,0.00,,BKN095,0.00,VWS V14.01,2013-06-08 21:57:00,
2013-06-08 18:02:00,77.9,49.6,29.77,SSE,150,0.0,0.0,37,0.00,,BKN095,0.00,VWS V14.01,2013-06-08 22:02:00,
2013-06-08 18:07:00,77.6,50.0,29.77,SSE,152,0.0,0.0,38,0.00,,BKN095,0.00,VWS V14.01,2013-06-08 22:07:00,
2013-06-08 18:12:00,76.7,49.2,29.77,SSE,150,0.0,0.0,38,0.00,,BKN095,0.00,VWS V14.01,2013-06-08 22:12:00,
2013-06-08 18:17:00,76.1,50.0,29.77,South,172,0.0,2.0,40,0.00,,BKN095,0.00,VWS V14.01,2013-06-08 22:17:00,
2013-06-08 18:22:00,76.0,50.0,29.77,SSE,160,0.0,2.0,40,0.00,,BKN095,0.00,VWS V14.01,2013-06-08 22:22:00,
2013-06-08 18:32:00,76.0,49.3,29.77,SSE,160,0.0,0.0,39,0.00,,BKN095,0.00,VWS V14.01,2013-06-08 22:32:00,
2013-06-08 18:37:00,76.3,49.5,29.77,SSE,160,0.0,0.0,39,0.00,,BKN095,0.00,VWS V14.01,2013-06-08 22:37:00,
2013-06-08 18:42:00,76.7,50.6,29.77,SSE,160,0.0,0.0,40,0.00,,SCT090,0.00,VWS V14.01,2013-06-08 22:42:00,
2013-06-08 18:52:00,77.9,51.0,29.77,SSE,155,0.0,0.0,39,0.00,,SCT090,0.00,VWS V14.01,2013-06-08 22:52:00,
2013-06-08 18:57:00,77.7,50.1,29.77,SSE,150,0.0,0.0,38,0.00,,SCT090,0.00,VWS V14.01,2013-06-08 22:57:00,
2013-06-08 19:02:00,77.0,50.2,29.77,SSE,147,0.0,0.0,39,0.00,,SCT090,0.00,VWS V14.01,2013-06-08 23:02:00,
2013-06-08 19:12:00,77.0,50.9,29.77,SSE,147,0.0,0.0,40,0.00,,SCT090,0.00,VWS V14.01,2013-06-08 23:12:00,
2013-06-08 19:22:00,76.5,50.4,29.77,SSE,148,0.0,0.0,40,0.00,,SCT090,0.00,VWS V14.01,2013-06-08 23:22:00,
2013-06-08 19:32:00,76.0,51.3,29.77,SSE,147,0.0,0.0,42,0.00,,SCT090,0.00,VWS V14.01,2013-06-08 23:32:00,
2013-06-08 19:37:00,75.6,51.5,29.77,SSE,147,0.0,0.0,43,0.00,,SCT090,0.00,VWS V14.01,2013-06-08 23:37:00,
2013-06-08 19:47:00,75.4,52.6,29.77,SSE,147,0.0,0.0,45,0.00,,SCT090,0.00,VWS V14.01,2013-06-08 23:47:00,
2013-06-08 19:57:00,76.1,53.2,29.77,SSE,147,0.0,0.0,45,0.00,,SCT090,0.00,VWS V14.01,2013-06-08 23:57:00,
2013-06-08 20:02:00,76.1,52.6,29.77,SSE,147,0.0,0.0,44,0.00,,SCT090,0.00,VWS V14.01,2013-06-09 00:02:00,
2013-06-08 20:07:00,76.1,52.6,29.77,SSE,147,0.0,0.0,44,0.00,,SCT090,0.00,VWS V14.01,2013-06-09 00:07:00,
2013-06-08 20:17:00,75.4,52.6,29.77,SSE,147,0.0,0.0,45,0.00,,SCT090,0.00,VWS V14.01,2013-06-09 00:17:00,
2013-06-08 20:27:00,74.9,53.9,29.77,SSE,147,0.0,1.0,48,0.00,,SCT090,0.00,VWS V14.01,2013-06-09 00:27:00,
2013-06-08 20:32:00,74.4,54.0,29.77,SSE,147,0.0,0.0,49,0.00,,SCT090,0.00,VWS V14.01,2013-06-09 00:32:00,
2013-06-08 20:37:00,74.0,54.2,29.77,SSE,147,0.0,0.0,50,0.00,,SCT090,0.00,VWS V14.01,2013-06-09 00:37:00,
2013-06-08 20:42:00,73.7,54.5,29.77,SSE,147,0.0,1.0,51,0.00,,SCT085,0.00,VWS V14.01,2013-06-09 00:42:00,
2013-06-08 20:47:00,73.3,54.6,29.78,SSE,147,0.0,0.0,52,0.00,,SCT085,0.00,VWS V14.01,2013-06-09 00:47:00,
2013-06-08 20:52:00,73.0,54.9,29.78,SSE,147,0.0,1.0,53,0.00,,SCT085,0.00,VWS V14.01,2013-06-09 00:52:00,
2013-06-08 20:57:00,72.7,55.1,29.78,SSE,147,0.0,0.0,54,0.00,,SCT085,0.00,VWS V14.01,2013-06-09 00:57:00,
2013-06-08 21:02:00,72.3,55.2,29.78,SSE,147,0.0,1.0,55,0.00,,SCT085,0.00,VWS V14.01,2013-06-09 01:02:00,
2013-06-08 21:07:00,72.1,55.6,29.78,SSE,147,0.0,0.0,56,0.00,,SCT085,0.00,VWS V14.01,2013-06-09 01:07:00,
2013-06-08 21:12:00,71.8,55.3,29.78,SSE,147,0.0,0.0,56,0.00,,SCT085,0.00,VWS V14.01,2013-06-09 01:12:00,
2013-06-08 21:17:00,71.5,55.5,29.78,SSE,147,0.0,0.0,57,0.00,,SCT085,0.00,VWS V14.01,2013-06-09 01:17:00,
2013-06-08 21:27:00,70.8,55.3,29.78,SSE,147,0.0,0.0,58,0.00,,SCT085,0.00,VWS V14.01,2013-06-09 01:27:00,
2013-06-08 21:37:00,70.4,55.4,29.78,SSE,147,0.0,0.0,59,0.00,,SCT085,0.00,VWS V14.01,2013-06-09 01:37:00,
2013-06-08 21:42:00,70.1,55.6,29.78,SSE,147,0.0,0.0,60,0.00,,CLR,0.00,VWS V14.01,2013-06-09 01:42:00,
2013-06-08 21:47:00,69.8,55.3,29.79,SSE,147,0.0,0.0,60,0.00,,CLR,0.00,VWS V14.01,2013-06-09 01:47:00,
2013-06-08 21:52:00,69.6,54.7,29.79,SSE,147,0.0,0.0,59,0.00,,CLR,0.00,VWS V14.01,2013-06-09 01:52:00,
2013-06-08 22:02:00,68.9,54.5,29.79,SSE,147,0.0,0.0,60,0.00,,CLR,0.00,VWS V14.01,2013-06-09 02:02:00,
2013-06-08 22:12:00,68.3,54.8,29.79,SSE,147,0.0,0.0,62,0.00,,CLR,0.00,VWS V14.01,2013-06-09 02:12:00,
2013-06-08 22:17:00,67.9,54.4,29.79,SSE,147,0.0,1.0,62,0.00,,CLR,0.00,VWS V14.01,2013-06-09 02:17:00,
2013-06-08 22:22:00,67.8,54.8,29.79,SSE,147,0.0,0.0,63,0.00,,CLR,0.00,VWS V14.01,2013-06-09 02:22:00,
2013-06-08 22:32:00,67.6,55.0,29.80,SSE,147,0.0,0.0,64,0.00,,CLR,0.00,VWS V14.01,2013-06-09 02:32:00,
2013-06-08 22:37:00,67.3,56.8,29.80,SSE,147,0.0,1.0,69,0.00,,CLR,0.00,VWS V14.01,2013-06-09 02:37:00,
2013-06-08 22:42:00,66.6,57.3,29.80,SSE,147,0.0,0.0,72,0.00,,OVC085,0.00,VWS V14.01,2013-06-09 02:42:00,
2013-06-08 22:47:00,65.8,56.5,29.80,SSE,147,0.0,0.0,72,0.00,,OVC085,0.00,VWS V14.01,2013-06-09 02:47:00,
2013-06-08 22:52:00,65.3,56.4,29.80,SSE,147,0.0,0.0,73,0.00,,OVC085,0.00,VWS V14.01,2013-06-09 02:52:00,
2013-06-08 23:02:00,64.7,56.6,29.81,SSE,147,0.0,0.0,75,0.00,,OVC085,0.00,VWS V14.01,2013-06-09 03:02:00,
2013-06-08 23:12:00,64.0,56.3,29.81,SSE,147,0.0,0.0,76,0.00,,OVC085,0.00,VWS V14.01,2013-06-09 03:12:00,
2013-06-08 23:17:00,64.0,56.7,29.81,SSE,147,0.0,0.0,77,0.00,,OVC085,0.00,VWS V14.01,2013-06-09 03:17:00,
2013-06-08 23:22:00,63.9,56.6,29.81,SSE,147,0.0,0.0,77,0.00,,OVC085,0.00,VWS V14.01,2013-06-09 03:22:00,
2013-06-08 23:32:00,63.4,56.4,29.81,SSE,147,0.0,0.0,78,0.00,,OVC085,0.00,VWS V14.01,2013-06-09 03:32:00,
2013-06-08 23:37:00,63.2,56.2,29.81,SSE,147,0.0,0.0,78,0.00,,OVC085,0.00,VWS V14.01,2013-06-09 03:37:00,
2013-06-08 23:47:00,63.2,55.9,29.81,SSE,147,0.0,0.0,77,0.00,,CLR,0.00,VWS V14.01,2013-06-09 03:47:00,
2013-06-08 23:52:00,63.1,56.1,29.81,SSE,147,0.0,0.0,78,0.00,,CLR,0.00,VWS V14.01,2013-06-09 03:52:00,
2013-06-08 23:57:00,62.9,56.3,29.81,SSE,147,0.0,0.0,79,0.00,,CLR,0.00,VWS V14.01,2013-06-09 03:57:00,